Content
SEND FEEDBACK

Daily
Averages
Monthly
Summary
Peru

IQUITOS, PERU


Home > South America > Peru
Elevation: 413 feet     Latitude: 03 45S     Longitude: 073 15W

WEATHER
 
SELECT A DAY
Number of Records: 189,107;   Date Range: 6/30/96 - 9/30/14
 
SHARE

PRINT THIS DATA

[ ← Previous Day ]
WEATHER ALMANAC - JANUARY 31, 2013
[ Next Day → ]
[ °C ]   °F
Weather ElementAverageHighLow
Temperature82.1 °F91.4 °F (2:00 pm)77 °F (4:00 am)
Dewpoint74.9 °F78.8 °F (2:00 pm)71.6 °F (3:00 am)
Humidity78.2 %94 % (11:48 pm)57 % (4:00 pm)
Barometer29.77 in29.86 in (10:00 am)29.65 in (5:00 pm)
Wind Speed2.7 mph10.4 mph (11:48 pm)
Wind Gust19.6 mph (11:40 pm)
Weather ElementAverage
Visibility5.6 mi
Wind DirectionE (95.4 °)

Weather ElementTotal
Precipitation---
Cooling Degree Days19.2 (Base 65)
Growing Degree Days34.2 (Base 50)
Averaged from 33 records on January 31, 2013
WEATHER CONDITIONS BREAKOUT
WIND DIRECTION BREAKOUT
WEATHER BY HOUR - JANUARY 31, 2013
[ °C ]   °F
Local TimeTemperatureDewpointHumidityBarometerVisibilityWind DirectionWind SpeedGust SpeedPrecipitationEventsConditions
1:00 AM79.0 °F74.0 °F79 %29.83 in6.0 miCalmPartly Cloudy
1:00 AM78.8 °F73.4 °F83 %29.80 in6.2 miNE (50°)3.5 mphScattered Clouds
2:00 AM78.8 °F73.4 °F83 %29.80 in6.2 miNE (50°)3.5 mphScattered Clouds
3:00 AM78.8 °F71.6 °F78 %29.77 in6.2 miNE (50°)3.5 mphScattered Clouds
4:00 AM78.0 °F72.0 °F78 %29.83 in5.0 miCalmFogLight Fog
4:00 AM77.0 °F71.6 °F83 %29.77 in5.0 miCalmFogPatches of Fog
5:00 AM77.0 °F71.6 °F83 %29.77 in5.0 miCalmFogPatches of Fog
6:00 AM77.0 °F71.6 °F83 %29.80 in5.0 miCalmFogPatches of Fog
7:00 AM77.0 °F71.6 °F83 %29.80 in6.2 miCalmMostly Cloudy
7:00 AM77.0 °F72.0 °F80 %29.80 in6.0 miCalmPartly Cloudy
8:00 AM78.8 °F75.2 °F89 %29.83 in6.2 miCalmMostly Cloudy
9:00 AM80.6 °F75.2 °F84 %29.83 in6.2 miNorth (360°)3.5 mphMostly Cloudy
10:00 AM83.0 °F75.0 °F71 %29.84 in6.0 miWest (280°)3.5 mphPartly Cloudy
10:00 AM82.4 °F75.2 °F79 %29.86 in6.2 miWest (280°)3.5 mphMostly Cloudy
11:00 AM86.0 °F77.0 °F74 %29.83 in6.2 miCalmMostly Cloudy
12:00 PM89.6 °F75.2 °F62 %29.83 in6.2 miNE (50°)6.9 mphMostly Cloudy
1:00 PM89.6 °F75.2 °F62 %29.80 in6.2 miNorth (10°)5.8 mphMostly Cloudy
2:00 PM91.4 °F78.8 °F66 %29.74 in6.2 miNorth (350°)3.5 mphMostly Cloudy
3:00 PM91.4 °F77.0 °F63 %29.68 in6.2 miNNE (20°)5.8 mphScattered Clouds
4:00 PM90.0 °F77.0 °F57 %29.66 in6.0 miWest (270°)5.8 mphPartly Cloudy
4:00 PM89.6 °F77.0 °F66 %29.68 in6.2 miWest (270°)5.8 mphMostly Cloudy
5:00 PM89.6 °F77.0 °F66 %29.65 in6.2 miWSW (250°)6.9 mphScattered Clouds
6:00 PM86.0 °F77.0 °F74 %29.68 in6.2 miSW (230°)3.5 mphMostly Cloudy
7:00 PM83.0 °F78.0 °F80 %29.69 in6.0 miCalmPartly Cloudy
7:00 PM82.4 °F77.0 °F84 %29.71 in6.2 miCalmMostly Cloudy
7:38 PM82.4 °F75.2 °F79 %29.74 inCalmClear
8:00 PM82.4 °F75.2 °F79 %29.74 inCalmClear
9:00 PM80.6 °F75.2 °F84 %29.77 inCalmClear
10:00 PM79.0 °F76.0 °F87 %29.80 in6.0 miCalmPartly Cloudy
10:00 PM78.8 °F75.2 °F89 %29.80 inCalmClear
11:00 PM78.8 °F75.2 °F89 %29.80 in6.2 miSE (130°)5.8 mphThunderstormThunderstorm
11:40 PM78.8 °F75.2 °F89 %29.80 in1.9 miNorth (10°)8.1 mph19.6 mphRain-ThunderstormThunderstorms and Rain
11:48 PM77.0 °F75.2 °F94 %29.80 in0.5 miNorth (10°)10.4 mphRain-ThunderstormHeavy Thunderstorms and Rain
Hourly data recorded from SPQT, located miles away from Iquitos, Peru







STORIES FROM OUR PARTNERS